Location: Bittkow
(50.3000°N, 19.0000°E)
Time: 13:16:55
(UTC+00:00)

X-37B - Pass Details

Date: 19 September 2020
Orbit: 382 x 392 km, 45.0° (Epoch: 15 October)

Event Time Altitude Azimuth Distance (km) Brightness Sun altitude
Exits shadow 02:29:08 29° 158° (SSE) 737 1.9 -18.8°
Drops below altitude 10° 02:31:29 10° 113° (ESE) 1,404 3.9 -18.4°
Sets 02:33:41 0° 103° (ESE) 2,260 5.3 -18.1°
